Regional Weather Roundup
Issued by NWS Upton, NY

Current Version | Previous Version | Text Only | Print | Product List | Glossary Off
Versions: 1 2 3 4 5 6 7 8 9 10 11 12 13 14 15 16 17 18 19 20 21 22 23 24 25 26 27 28 29 30 31 32 33 34 35 36 37 38 39 40 41 42 43 44 45 46 47 48 49 50
000 ASUS41 KOKX 030705 RWROKX REGIONAL WEATHER ROUNDUP NATIONAL WEATHER SERVICE NEW YORK NY 200 AM EST TUE MAR 03 2015 NOTE: "FAIR" INDICATES FEW OR NO CLOUDS BELOW 12,000 FEET WITH NO SIGNIFICANT WEATHER AND/OR OBSTRUCTIONS TO VISIBILITY. NYZ071-072-176-178-NJZ106-104-030800- NEW YORK CITY METRO AREA CITY SKY/WX TMP DP RH WIND PRES REMARKS CENTRAL PARK CLEAR 26 8 46 CALM 30.41R LAGUARDIA APRT CLEAR 27 11 51 NW12 30.39R WCI 17 KENNEDY INTL CLEAR 26 9 48 NW12 30.41R WCI 16 NEWARK/LIBERTY PTCLDY 25 10 53 NW8 30.40S WCI 16 BRNX BOT. GARD N/A N/A N/A N/A NW3 30.40F TETERBORO CLEAR 23 8 52 NW6 30.39S WCI 16 $$ NYZ177-179-078>081-030800- LONG ISLAND NEW YORK CITY SKY/WX TMP DP RH WIND PRES REMARKS FARMINGDALE CLEAR 23 10 57 NW3 30.38S ISLIP NOT AVBL SHIRLEY CLEAR 15 6 67 NW8 30.37F WCI 4 WESTHAMPTON CLEAR 24 8 50 NW7 30.38S WCI 16 MONTAUK POINT NOT AVBL $$ NYZ052-065-067-030800- HUDSON VALLEY CITY SKY/WX TMP DP RH WIND PRES REMARKS WHITE PLAINS CLEAR 15 5 64 CALM 30.35R NEWBURGH CLEAR 18 9 68 W7 30.36R WCI 8 MONTGOMERY CLEAR 19 6 57 W5 30.35R WCI 12 POUGHKEEPSIE CLEAR 17 5 59 CALM 30.37R ALBANY CLEAR 17 5 59 W9 30.36S WCI 6 $$ NJZ001-105-106-008-010-013-015-019>022-104-030800- NEW JERSEY CITY SKY/WX TMP DP RH WIND PRES REMARKS NEWARK/LIBERTY PTCLDY 25 10 53 NW8 30.40S WCI 16 TETERBORO CLEAR 23 8 52 NW6 30.39S WCI 16 CALDWELL CLEAR 22 7 52 CALM 30.40R MORRISTOWN CLEAR 21 7 53 CALM 30.40R SOMERVILLE CLEAR 20 7 57 N7 30.39S WCI 11 SUSSEX CLEAR 19 6 57 VRB3 30.37S ANDOVER N/A 20 7 57 VRB5 30.37R WCI 13 TRENTON CLEAR 25 7 46 N9 30.40R WCI 15 MILLVILLE CLEAR 26 17 68 W8 30.40S WCI 18 ATLANTIC CITY CLEAR 24 15 68 NW5 30.41R WCI 18 WRIGHTSTOWN CLEAR 24 11 57 N10 30.38R WCI 13 TOMS RIVER CLEAR 25 9 50 NW5 30.41R WCI 19 BELMAR CLEAR 25 9 50 CALM 30.40R $$ PAZ047>061-062-071-030800- EASTERN PENNSYLVANIA CITY SKY/WX TMP DP RH WIND PRES REMARKS PHILADELPHIA PTCLDY 28 10 46 N12 30.43R WCI 18 ALLENTOWN CLEAR 17 5 59 CALM 30.40R SCRANTON CLEAR 18 6 59 N5 30.35S WCI 11 $$ CTZ002-004>006-009-010-012-RIZ004-006-007-MAZ004-011-015-030800- SOUTHERN NEW ENGLAND IN CT CITY SKY/WX TMP DP RH WIND PRES REMARKS BRADLEY INTL CLEAR 21 7 54 NW15 30.33R WCI 8 HARTFORD CLEAR 21 8 57 NW8 30.36R WCI 11 DANBURY CLEAR 11 3 70 CALM 30.36R WTRBRY/OXFORD CLEAR 19 3 49 N6 30.32S WCI 11 BRIDGEPORT CLEAR 21 9 59 NW5 30.38R WCI 15 MERIDEN CLEAR 19 6 57 CALM 30.37R NEW HAVEN CLEAR 24 9 52 NW8 30.37R WCI 15 CHESTER FAIR 25 10 54 NW10 30.33S WCI 15 GROTON CLEAR 21 9 59 W5 30.35R WCI 15 WILLIMANTIC CLEAR 20 6 55 W6 30.33R WCI 12 IN RI CITY SKY/WX TMP DP RH WIND PRES REMARKS PROVIDENCE CLEAR 20 7 57 W9 30.32R WCI 9 BLOCK ISLAND CLEAR 27 9 46 NW13G21 30.31S WCI 16 WESTERLY CLEAR 23 8 52 W5 30.34R WCI 17 IN MA CITY SKY/WX TMP DP RH WIND PRES REMARKS BOSTON PTCLDY 23 5 46 NW5 30.31R WCI 17 WORCESTER CLEAR 16 4 59 NW7 30.24R WCI 6 WESTFIELD FAIR 19 6 57 W9 30.32R WCI 8 PROVINCETOWN CLEAR 25 10 54 NW18G31 30.29R WCI 11 NANTUCKET CLEAR 27 13 55 NW15G24 30.28R WCI 15 $$ ANZ330-335-338-340-345-350-353-355-030800- COASTAL MARINE OBSERVATIONS STATION/POSITION TIME SKY/WX TEMP WIND PRES VSBY WAVE AIR SEA DIR/SP/G HT/PER (UTC) (F) (DEG/KT/KT) (MB) (MI) (FT/S) NY HARB ENTRANCE 0700 29 38 330/ 16/ 19 1029.2 3/ 4 4S FIRE IS 0600 32 N/A 2/ 9 20S FIRE ISLAND 0600 36 1028.7 4/ 5 23SW MTP 0700 N/A 4/ 4 HUDSON CANYON NOT AVBL EXECUTION ROCKS NOT AVBL WESTERN LI SOUND NOT AVBL CENTRAL LI SOUND NOT AVBL EASTERN LI SOUND NOT AVBL ROBBINS REEF 0600 27 320/ 14/ 17 1028.0 $$ >>>>>>>>>>>>>>>>>>>>>>>>>>>> KEY <<<<<<<<<<<<<<<<<<<<<<<<<<< > < > SKY/WX - SKY CONDITION/PRESENT WEATHER < > TMP - TEMPERATURE IN FAHRENHEIT < > DP - DEWPOINT IN FAHRENHEIT < > RH - RELATIVE HUMIDITY IN PERCENT < > WIND - DIRECTION AND SPEED IN MPH < > PRES - MEAN SEA LEVEL PRESSURE IN INCHES OF HG < > WCI - WIND CHILL INDEX < > VSB - VISIBILITY IN MILES < > HX - HEAT INDEX < > TC - TEMPERATURE IN CELSIUS < > VRB - VARIABLE WIND DIRECTION < > < >>>>>>>>>>>>>>>>>>>>>>>>>>>> KEY <<<<<<<<<<<<<<<<<<<<<<<<<<<

USA.gov is the U.S. government's official web portal to all federal, state and local government web resources and services.